[[{"header":{"parameterUnit":"m.s-1","parameterCategory":2,"la1":30.2991,"la2":30.254,"lo1":-89.0895,"lo2":-89.0444,"dy":0.0017,"dx":0.0017,"nx":28,"ny":28,"refTime":"2024-07-01T09:00:00:Z","depth":"0","parameterNumber":2,"parameterNumberName":"U-component_of_CURRENTS"},"data":[0,0,0,0,0,0,0,0,0,0,0,0,0,0,0,0,0,0,0,0,0,0,0,0,0,0,0,0,0,0,0,0,0,0,0,0,0,0,0,0,0,0,0,0,0,0,0,0,0,0,0,0,0,0,0,0,0,0,0.3897,0.3897,0,0.3857,0.3856,0.3855,0.3861,0.3862,0.3863,0.3864,0.3881,0.388,0.388,0,0,0,0,0,0,0,0,0,0,0,0,0,0.3879,0.3879,0.3897,0.3897,0.3897,0.3857,0.3856,0.3855,0.386,0.3862,0.3863,0.3865,0.3881,0.388,0.388,0,0,0,0,0,0,0,0,0,0,0,0,0,0.3863,0.388,0.3897,0.3899,0.3899,0.3857,0.3856,0.3855,0.386,0.3862,0.3864,0.3865,0.3881,0.388,0.3879,0.3838,0,0,0.3876,0.3876,0,0,0,0,0,0,0,0,0.3864,0.3863,0.3899,0.3899,0.3899,0.387,0.3856,0.3854,0.386,0.3869,0.3864,0.3866,0.3885,0.3884,0.3864,0.3839,0.384,0.3876,0.3876,0.3875,0.3875,0,0,0,0,0,0,0,0.3865,0.3864,0.3876,0.3899,0.3899,0.3868,0.3868,0.3854,0.3864,0.3868,0.387,0.3874,0.3885,0.3864,0.3864,0.384,0.3876,0.3876,0.3875,0.3875,0.3844,0.3844,0,0,0,0,0,0,0.3884,0.3865,0.3877,0.3875,0.3892,0.3868,0.3868,0.3873,0.3863,0.3865,0.3872,0.3874,0.3865,0.3865,0.3865,0.3836,0.3875,0.3874,0.3874,0.3844,0.3844,0.3843,0,0,0,0,0,0,0.3884,0.3886,0.3879,0.3873,0.3871,0.3868,0.3873,0.3872,0.3854,0.3867,0.3869,0.3858,0.3867,0.3867,0.3854,0.3837,0.3874,0.3873,0.3844,0.3844,0.3844,0.3766,0,0,0,0,0,0,0.3884,0.3886,0.3886,0.3875,0.3873,0.3844,0.3872,0.387,0.3856,0.3858,0.3855,0.3858,0.3868,0.3855,0.3853,0.3836,0.3872,0.3845,0.3844,0.3844,0.3769,0.3763,0.3758,0,0,0,0,0,0.3883,0.3882,0.3887,0.3888,0.3877,0.3843,0.3837,0.3837,0.3854,0.383,0.384,0.3858,0.3852,0.3853,0.3851,0.3833,0.3845,0.3844,0.3844,0.3771,0.3764,0.3758,0,0,0,0,0,0,0.3873,0.3882,0.3887,0.3889,0.3864,0.3846,0.3826,0.3829,0.3813,0.3822,0.3839,0.3841,0.3832,0.3842,0.3843,0.3828,0.3857,0.3856,0.3803,0.3797,0.3791,0.3791,0.3872,0,0,0,0,0,0.3872,0.3868,0.3866,0.3857,0.3848,0.3833,0.382,0.3819,0.381,0.3804,0.38,0.3811,0.3823,0.3818,0.3824,0.3796,0.3833,0.3792,0.3786,0.3782,0.3783,0.3852,0.3853,0.3842,0.3842,0.3842,0,0,0.3861,0.3867,0.3862,0.3852,0.3833,0.379,0.3827,0.3801,0.3767,0.3809,0.3757,0.3788,0.3815,0.3796,0.3793,0.3802,0.3795,0.3781,0.3776,0.378,0.3851,0.3852,0.3853,0.3841,0.3841,0.3842,0,0,0.3818,0.3842,0.3813,0.379,0.377,0.376,0.3752,0.3727,0.3721,0.3679,0.3723,0.3742,0.3719,0.3746,0.3759,0.3726,0.3771,0.3734,0.3691,0.3758,0.3759,0.3761,0.3766,0.3769,0.3722,0.3722,0.3722,0,0.3798,0.3771,0.3793,0.3751,0.3723,0.3742,0.3686,0.3674,0.3646,0.3645,0.3654,0.3677,0.3695,0.3713,0.3706,0.3711,0.3746,0.3708,0.375,0.3753,0.3757,0.3762,0.3767,0.3718,0.3719,0.3719,0.372,0,0.3722,0.3697,0.3674,0.3629,0.3602,0.3558,0.3553,0.3533,0.3535,0.3535,0.3548,0.3583,0.3608,0.3618,0.3645,0.3683,0.3695,0.3742,0.3764,0.3753,0.3759,0.3765,0.3713,0.3714,0.3715,0.3716,0,0,0.3659,0.3628,0.3612,0.3576,0.3537,0.3504,0.3464,0.3437,0.3429,0.3428,0.3421,0.3458,0.3513,0.3536,0.3591,0.3642,0.3676,0.3696,0.3701,0.3693,0.3788,0.3618,0.3609,0.3744,0.3746,0.3747,0.3766,0,0.3575,0.3496,0.3496,0.3395,0.3348,0.3359,0.3321,0.3314,0.3323,0.3323,0.3399,0.3416,0.3473,0.35,0.3562,0.3665,0.3697,0.3665,0.3807,0.3809,0.3656,0.3612,0.34,0.3385,0.3772,0.3773,0.3774,0,0.3468,0.3441,0.3347,0.3299,0.3279,0.3231,0.3201,0.3171,0.3207,0.3226,0.328,0.3342,0.3417,0.3474,0.3624,0.3607,0.3685,0.3756,0.376,0.3637,0.3651,0.3469,0.3382,0.3268,0.3784,0.3784,0.3783,0,0.339,0.3318,0.325,0.3223,0.3182,0.3154,0.3135,0.3145,0.3133,0.3179,0.3187,0.3294,0.3344,0.3479,0.3606,0.3632,0.3761,0.3816,0.3726,0.3714,0.3575,0.3547,0.339,0.3914,0.3914,0.3914,0.3914,0,0.3281,0.3213,0.3217,0.317,0.3105,0.3099,0.3043,0.3052,0.3073,0.306,0.3148,0.3167,0.3358,0.3448,0.3581,0.3639,0.374,0.3695,0.3707,0.3533,0.3502,0.3434,0.3418,0.3914,0.3914,0.3914,0.3914,0,0.3171,0.3167,0.3093,0.307,0.3059,0.3013,0.298,0.2962,0.2986,0.2977,0.299,0.3083,0.3191,0.3342,0.3539,0.3564,0.3535,0.3669,0.3407,0.3384,0.3147,0.3135,0.2925,0.2867,0.3549,0.3545,0.3541,0,0.3092,0.3055,0.3026,0.3005,0.2987,0.2937,0.2913,0.2917,0.2903,0.2919,0.2918,0.2996,0.304,0.3198,0.3275,0.3394,0.3389,0.3231,0.3231,0.306,0.3062,0.2988,0.2953,0.3017,0.301,0.3004,0.2999,0,0.2975,0.2984,0.2956,0.2921,0.2888,0.2839,0.2809,0.2778,0.2785,0.2773,0.2769,0.2796,0.2886,0.2875,0.2969,0.3038,0.2994,0.3103,0.3027,0.2683,0.2498,0.2471,0.3052,0.2944,0.295,0.2954,0.2957,0.2959,0.2913,0.2881,0.2877,0.2823,0.2796,0.2741,0.2659,0.2647,0.259,0.252,0.2609,0.2539,0.2536,0.2624,0.266,0.2492,0.263,0.243,0.2447,0.2401,0.2263,0.2664,0.2508,0.2511,0.2513,0.2515,0.2517,0,0.2832,0.2817,0.2779,0.2713,0.2644,0.2659,0.2583,0.2475,0.2368,0.2334,0.2297,0.2145,0.2078,0.2083,0.1952,0.1851,0.1844,0.1811,0.1696,0.172,0.2155,0.2048,0.1658,0.1659,0.1659,0.1659,0.1659,0.1659,0.2801,0.274,0.2711,0.2576,0.2527,0.2367,0.2297,0.2166,0.208,0.1863,0.1713,0.1712,0.1661,0.1489,0.1336,0.1339,0.1299,0.1167,0.1295,0.1619,0.168,0.1738,0.1631,0.1161,0.116,0.0761,0.0758,0.0755]},{"header":{"parameterUnit":"m.s-1","parameterCategory":2,"la1":30.2991,"la2":30.254,"lo1":-89.0895,"lo2":-89.0444,"dy":0.0017,"dx":0.0017,"nx":28,"ny":28,"refTime":"2024-07-01T09:00:00:Z","depth":"0","parameterNumber":3,"parameterNumberName":"V-component_of_CURRENTS"},"data":[0,0,0,0,0,0,0,0,0,0,0,0,0,0,0,0,0,0,0,0,0,0,0,0,0,0,0,0,0,0,0,0,0,0,0,0,0,0,0,0,0,0,0,0,0,0,0,0,0,0,0,0,0,0,0,0,0,0,0.0632,0.0636,0,0.0916,0.0919,0.0922,0.103,0.103,0.103,0.1029,0.111,0.1113,0.1115,0,0,0,0,0,0,0,0,0,0,0,0,0,0.0234,0.024,0.0632,0.0636,0.064,0.0916,0.0919,0.0922,0.103,0.103,0.103,0.1029,0.111,0.1112,0.1115,0,0,0,0,0,0,0,0,0,0,0,0,0,0.0445,0.0242,0.0631,0.0732,0.0744,0.0915,0.0919,0.0923,0.103,0.103,0.1029,0.1029,0.1109,0.1112,0.1116,0.1144,0,0,0.1126,0.1128,0,0,0,0,0,0,0,0,0.0433,0.0458,0.0713,0.0725,0.074,0.0943,0.081,0.099,0.103,0.0915,0.1029,0.1029,0.104,0.1049,0.1097,0.1148,0.1152,0.1127,0.1129,0.113,0.1131,0,0,0,0,0,0,0,0.0418,0.0447,0.0738,0.0718,0.0734,0.0782,0.081,0.0845,0.0967,0.0925,0.0935,0.0977,0.1045,0.1094,0.1099,0.1153,0.1127,0.113,0.1132,0.1133,0.1213,0.1213,0,0,0,0,0,0,0.0395,0.0434,0.0729,0.0747,0.059,0.0789,0.0821,0.0873,0.0971,0.099,0.0977,0.0981,0.1088,0.1095,0.1102,0.1145,0.113,0.1134,0.1136,0.1213,0.1213,0.1213,0,0,0,0,0,0,0.0386,0.0419,0.0717,0.0601,0.0643,0.0797,0.0854,0.0879,0.0932,0.1015,0.1028,0.1007,0.1088,0.1097,0.1147,0.1148,0.1135,0.1139,0.1213,0.1213,0.1213,0.1228,0,0,0,0,0,0,0.0373,0.0414,0.0441,0.06,0.0649,0.0818,0.0856,0.0885,0.0962,0.097,0.1044,0.1052,0.1088,0.1142,0.115,0.1153,0.1141,0.1213,0.1213,0.1213,0.1227,0.1228,0.1229,0,0,0,0,0,0.0358,0.0414,0.0441,0.0477,0.0683,0.082,0.0848,0.0951,0.0963,0.0994,0.1046,0.105,0.1146,0.1146,0.1156,0.1159,0.1213,0.1213,0.1213,0.1227,0.1228,0.1229,0,0,0,0,0,0,0.0276,0.0436,0.0468,0.0574,0.068,0.084,0.0897,0.0947,0.1018,0.1021,0.1069,0.1082,0.1122,0.1135,0.1133,0.1178,0.1172,0.1174,0.1179,0.118,0.1181,0.1172,0.1144,0,0,0,0,0,0.0264,0.0337,0.0485,0.0567,0.0619,0.0746,0.0813,0.088,0.0971,0.1004,0.105,0.109,0.1132,0.1151,0.1189,0.1222,0.1212,0.1222,0.1223,0.1223,0.1221,0.1214,0.1215,0.1213,0.1213,0.1213,0,0,0.0261,0.0355,0.04,0.0551,0.0644,0.0731,0.0784,0.0893,0.095,0.0996,0.1065,0.1099,0.1141,0.1188,0.1203,0.1198,0.1217,0.1223,0.1224,0.1221,0.1214,0.1215,0.1215,0.1213,0.1213,0.1213,0,0,0.0291,0.0366,0.0433,0.0515,0.0652,0.0729,0.075,0.0893,0.0937,0.1012,0.1052,0.1087,0.1153,0.1189,0.1213,0.1234,0.1224,0.1234,0.1235,0.123,0.123,0.123,0.121,0.1208,0.1233,0.1233,0.1233,0,0.0275,0.0385,0.0472,0.0553,0.0623,0.0717,0.0792,0.0861,0.0991,0.1019,0.1025,0.1124,0.1153,0.1212,0.1224,0.1236,0.1227,0.1234,0.1231,0.1231,0.1231,0.1211,0.1208,0.1233,0.1233,0.1233,0.1233,0,0.0359,0.0436,0.0486,0.0605,0.0677,0.0766,0.0864,0.0914,0.0957,0.102,0.1079,0.113,0.1183,0.1193,0.1222,0.124,0.1232,0.1236,0.123,0.1232,0.121,0.1208,0.1234,0.1234,0.1234,0.1234,0,0,0.0364,0.0511,0.0528,0.0574,0.071,0.0782,0.0851,0.0949,0.0988,0.106,0.1108,0.1171,0.1186,0.1212,0.1242,0.1241,0.1231,0.1238,0.1238,0.122,0.1209,0.1173,0.1167,0.1238,0.1238,0.1238,0.1191,0,0.0405,0.0526,0.0595,0.0696,0.0768,0.0842,0.0897,0.0978,0.1034,0.1092,0.1133,0.1186,0.1198,0.122,0.1224,0.1246,0.1226,0.1242,0.1207,0.1206,0.1176,0.1163,0.1166,0.1123,0.1189,0.1188,0.1188,0,0.0477,0.0544,0.064,0.0734,0.077,0.0824,0.0909,0.0974,0.1059,0.1097,0.1148,0.1189,0.1227,0.1218,0.1229,0.1242,0.1216,0.1213,0.1211,0.117,0.1166,0.1132,0.1115,0.1107,0.1184,0.1184,0.1185,0,0.045,0.0578,0.0638,0.0681,0.08,0.0828,0.088,0.0968,0.1016,0.1094,0.113,0.1185,0.1213,0.1204,0.1209,0.1217,0.1199,0.1205,0.1139,0.1136,0.1127,0.1123,0.1099,0.117,0.117,0.117,0.117,0,0.0487,0.0543,0.0622,0.0664,0.0717,0.0799,0.0854,0.0914,0.0993,0.1052,0.1119,0.117,0.1209,0.1222,0.1204,0.1168,0.1188,0.1131,0.1121,0.113,0.1127,0.111,0.1118,0.1168,0.1169,0.1169,0.1169,0,0.048,0.0539,0.0608,0.0693,0.0715,0.0749,0.0833,0.0875,0.0948,0.1024,0.1048,0.1154,0.118,0.1194,0.1187,0.1157,0.1123,0.1094,0.1096,0.1087,0.1017,0.1027,0.098,0.1023,0.1016,0.1015,0.1014,0,0.0499,0.0531,0.06,0.0625,0.0664,0.0717,0.0757,0.0842,0.0893,0.1018,0.1054,0.1114,0.1178,0.1158,0.1126,0.1076,0.1079,0.1011,0.1018,0.1003,0.1008,0.1013,0.1056,0.101,0.1009,0.1008,0.1007,0,0.0518,0.0526,0.0567,0.0605,0.0642,0.0696,0.0756,0.0793,0.0902,0.0969,0.1068,0.1126,0.1143,0.1134,0.1067,0.1032,0.1029,0.0991,0.0985,0.1001,0.0997,0.1038,0.1043,0.1001,0.1001,0.1002,0.1002,0.1002,0.0511,0.0521,0.0551,0.0591,0.0633,0.0686,0.0721,0.0794,0.0875,0.0991,0.1055,0.1132,0.1122,0.1062,0.1018,0.093,0.0972,0.0905,0.0916,0.0921,0.0967,0.0941,0.0883,0.0883,0.0883,0.0883,0.0883,0,0.05,0.051,0.0541,0.0588,0.0623,0.0655,0.0734,0.0767,0.0851,0.0963,0.1049,0.1072,0.1046,0.0998,0.0893,0.086,0.0896,0.0853,0.0882,0.0932,0.091,0.0915,0.085,0.085,0.085,0.085,0.085,0.085,0.0496,0.0501,0.0516,0.057,0.0604,0.0644,0.0686,0.0735,0.0812,0.09,0.095,0.1018,0.1025,0.0864,0.0802,0.0806,0.0865,0.0836,0.0884,0.0874,0.0881,0.0887,0.0893,0.0825,0.0825,0.0929,0.093,0.093]}],[{"header":{"parameterUnit":"m.s-1","parameterCategory":2,"la1":30.2991,"la2":30.254,"lo1":-89.0895,"lo2":-89.0444,"dy":0.0017,"dx":0.0017,"nx":28,"ny":28,"refTime":"2024-07-01T09:00:00:Z","depth":"2","parameterNumber":2,"parameterNumberName":"U-component_of_CURRENTS"},"data":[0,0,0,0,0,0,0,0,0,0,0,0,0,0,0,0,0,0,0,0,0,0,0,0,0,0,0,0,0,0,0,0,0,0,0,0,0,0,0,0,0,0,0,0,0,0,0,0,0,0,0,0,0,0,0,0,0,0,0.2765,0.2768,0,0.297,0.2972,0.2973,0.312,0.3122,0.3124,0.3126,0.3268,0.327,0.3272,0,0,0,0,0,0,0,0,0,0,0,0,0,0.2439,0.2443,0.2765,0.2768,0.2772,0.297,0.2972,0.2974,0.3119,0.3122,0.3124,0.3127,0.3267,0.3269,0.3272,0,0,0,0,0,0,0,0,0,0,0,0,0,0.2597,0.2445,0.2764,0.2875,0.2888,0.297,0.2972,0.2974,0.3119,0.3122,0.3125,0.3128,0.3267,0.3269,0.3272,0.3228,0,0,0.3281,0.3282,0,0,0,0,0,0,0,0,0.2588,0.2607,0.2856,0.2868,0.2882,0.3031,0.291,0.3059,0.3118,0.3021,0.3126,0.3129,0.3187,0.3196,0.3215,0.3234,0.3241,0.3281,0.3283,0.3284,0.3285,0,0,0,0,0,0,0,0.2576,0.2599,0.2837,0.2859,0.2876,0.2895,0.292,0.2938,0.3075,0.303,0.3043,0.308,0.3193,0.3212,0.322,0.3243,0.3281,0.3283,0.3285,0.3286,0.3308,0.3307,0,0,0,0,0,0,0.2571,0.2589,0.283,0.2844,0.275,0.2899,0.2927,0.2972,0.3077,0.31,0.3077,0.3086,0.3206,0.3216,0.3225,0.3253,0.3284,0.3286,0.3288,0.3309,0.3308,0.3306,0,0,0,0,0,0,0.2563,0.2591,0.2822,0.2728,0.276,0.2903,0.2952,0.2975,0.3039,0.3116,0.3136,0.3124,0.3209,0.3221,0.3243,0.3257,0.3288,0.329,0.331,0.3309,0.3307,0.326,0,0,0,0,0,0,0.2553,0.2586,0.2617,0.2728,0.2766,0.2899,0.2951,0.2977,0.3059,0.3074,0.3161,0.3176,0.3212,0.3239,0.3246,0.3261,0.3292,0.3312,0.331,0.3308,0.3263,0.3257,0.3252,0,0,0,0,0,0.254,0.2582,0.2617,0.2647,0.2804,0.2901,0.2921,0.3025,0.3059,0.309,0.3121,0.3175,0.3232,0.3239,0.3248,0.3265,0.3313,0.331,0.3308,0.3265,0.3258,0.3252,0,0,0,0,0,0,0.2481,0.2605,0.2645,0.273,0.2818,0.293,0.2994,0.3032,0.3082,0.311,0.315,0.3165,0.3206,0.322,0.3227,0.3262,0.3285,0.3284,0.325,0.3243,0.3238,0.3227,0.3295,0,0,0,0,0,0.2472,0.2526,0.2647,0.2715,0.2776,0.2877,0.2932,0.2998,0.3061,0.3093,0.3127,0.3164,0.3192,0.3206,0.3245,0.324,0.3239,0.3257,0.3252,0.3247,0.3242,0.3238,0.3231,0.3298,0.3298,0.3298,0,0,0.2478,0.2546,0.2587,0.2703,0.2797,0.2848,0.2919,0.3028,0.3033,0.3093,0.311,0.3161,0.3191,0.3208,0.3225,0.3224,0.3221,0.3244,0.324,0.3237,0.3234,0.3228,0.3222,0.3297,0.3297,0.3297,0,0,0.2497,0.2581,0.2631,0.2696,0.2826,0.2867,0.2897,0.3007,0.3037,0.3046,0.3099,0.3139,0.3161,0.3189,0.3201,0.3175,0.3208,0.32,0.3147,0.3142,0.3137,0.3132,0.3096,0.3088,0.3177,0.3177,0.3176,0,0.2512,0.2573,0.2661,0.2717,0.2766,0.2866,0.2912,0.2938,0.3014,0.3016,0.3051,0.3101,0.3147,0.3152,0.3153,0.3168,0.3156,0.3173,0.3135,0.3131,0.3127,0.3091,0.3084,0.3174,0.3174,0.3175,0.3175,0,0.2546,0.2606,0.2657,0.273,0.2771,0.2851,0.2897,0.2911,0.2939,0.296,0.2995,0.3045,0.3075,0.3098,0.3118,0.3118,0.3115,0.3147,0.3154,0.3118,0.3082,0.3075,0.317,0.3171,0.3172,0.3173,0,0,0.257,0.2665,0.2682,0.2701,0.2793,0.2825,0.2818,0.2841,0.2827,0.2883,0.2867,0.293,0.299,0.3006,0.3057,0.3049,0.3016,0.3078,0.3079,0.3043,0.2976,0.2707,0.2674,0.3043,0.3042,0.3041,0.2952,0,0.259,0.2656,0.2682,0.2711,0.276,0.2795,0.2759,0.2772,0.2788,0.2783,0.2846,0.2882,0.2942,0.2982,0.298,0.3027,0.3,0.3035,0.3015,0.3014,0.2781,0.2657,0.2576,0.2465,0.2945,0.2944,0.2943,0,0.2606,0.2642,0.2687,0.2688,0.2713,0.2709,0.2678,0.2671,0.2676,0.269,0.2736,0.2804,0.2834,0.2894,0.2907,0.2927,0.2942,0.2961,0.2958,0.2719,0.273,0.2585,0.2435,0.2932,0.2933,0.2934,0.2934,0,0.2553,0.2624,0.2639,0.2661,0.2684,0.267,0.2666,0.2657,0.2638,0.2666,0.267,0.2719,0.2764,0.2785,0.2846,0.2876,0.2838,0.2885,0.2646,0.2629,0.2556,0.2529,0.2869,0.2869,0.287,0.287,0.287,0,0.254,0.2547,0.2621,0.2636,0.2605,0.2641,0.2598,0.2591,0.2597,0.2565,0.265,0.2633,0.2745,0.2755,0.2793,0.2661,0.2793,0.2587,0.2565,0.2528,0.2501,0.2925,0.2932,0.2866,0.2867,0.2868,0.2868,0,0.2469,0.253,0.255,0.2594,0.259,0.2574,0.256,0.2528,0.2549,0.2513,0.2533,0.2571,0.257,0.2643,0.2674,0.2556,0.2499,0.244,0.2357,0.2319,0.2303,0.231,0.21,0.2089,0.208,0.2072,0.2066,0,0.2417,0.2443,0.2516,0.2507,0.2529,0.2513,0.2484,0.2499,0.2463,0.2449,0.2414,0.2443,0.2404,0.2297,0.2208,0.2134,0.2322,0.1897,0.1899,0.2212,0.2215,0.2236,0.2254,0.1814,0.1807,0.18,0.1795,0,0.2326,0.2391,0.2409,0.2435,0.2423,0.239,0.2364,0.2327,0.2325,0.2293,0.2248,0.2234,0.213,0.1961,0.1801,0.1754,0.1883,0.1742,0.213,0.1969,0.192,0.193,0.1963,0.1737,0.1743,0.1747,0.175,0.1753,0.2243,0.2265,0.2337,0.2307,0.2311,0.2279,0.2185,0.2151,0.2084,0.1958,0.2032,0.1899,0.1815,0.1485,0.1417,0.1345,0.1434,0.1351,0.1383,0.142,0.1349,0.128,0.0965,0.0967,0.0968,0.0969,0.097,0,0.2167,0.2209,0.2191,0.2182,0.2131,0.219,0.2084,0.1948,0.1809,0.1739,0.1655,0.1416,0.1242,0.1248,0.1027,0.0861,0.1016,0.0842,0.1099,0.1151,0.1198,0.1131,0.0683,0.0682,0.0682,0.0681,0,0,0.2138,0.212,0.2108,0.1994,0.1992,0.1867,0.1786,0.161,0.1486,0.1288,0.1173,0.1129,0.1143,0.0893,0.0823,0.0745,0.0975,0.0724,0.0949,0.1307,0.1356,0.1465,0.1409,0,0,0,0,0]},{"header":{"parameterUnit":"m.s-1","parameterCategory":2,"la1":30.2991,"la2":30.254,"lo1":-89.0895,"lo2":-89.0444,"dy":0.0017,"dx":0.0017,"nx":28,"ny":28,"refTime":"2024-07-01T09:00:00:Z","depth":"2","parameterNumber":3,"parameterNumberName":"V-component_of_CURRENTS"},"data":[0,0,0,0,0,0,0,0,0,0,0,0,0,0,0,0,0,0,0,0,0,0,0,0,0,0,0,0,0,0,0,0,0,0,0,0,0,0,0,0,0,0,0,0,0,0,0,0,0,0,0,0,0,0,0,0,0,0,-0.008,-0.0076,0,0.0248,0.0251,0.0255,0.0407,0.0407,0.0407,0.0407,0.0563,0.0567,0.0571,0,0,0,0,0,0,0,0,0,0,0,0,0,-0.0432,-0.0427,-0.008,-0.0076,-0.0071,0.0247,0.0252,0.0256,0.0407,0.0407,0.0407,0.0407,0.0562,0.0567,0.0572,0,0,0,0,0,0,0,0,0,0,0,0,0,-0.0213,-0.0426,-0.0081,0.0045,0.006,0.0246,0.0252,0.0257,0.0407,0.0407,0.0407,0.0407,0.056,0.0566,0.0572,0.0608,0,0,0.0591,0.0594,0,0,0,0,0,0,0,0,-0.0226,-0.0201,0.0022,0.0037,0.0054,0.029,0.0185,0.0367,0.0407,0.0271,0.0407,0.0407,0.0458,0.0473,0.0532,0.0616,0.0622,0.0592,0.0595,0.0598,0.06,0,0,0,0,0,0,0,-0.0241,-0.0213,0.0046,0.0027,0.0046,0.0135,0.0164,0.0222,0.0354,0.0283,0.0296,0.0338,0.0465,0.0525,0.0536,0.0625,0.0592,0.0597,0.0601,0.0603,0.0693,0.0692,0,0,0,0,0,0,-0.0281,-0.0228,0.0036,0.0056,-0.0085,0.0141,0.0174,0.0211,0.0358,0.0383,0.0338,0.0344,0.0515,0.0529,0.0542,0.0612,0.0598,0.0604,0.0607,0.0694,0.0693,0.0691,0,0,0,0,0,0,-0.029,-0.0261,0.0023,-0.0075,-0.0033,0.0146,0.0187,0.0218,0.03,0.0402,0.0423,0.0391,0.0516,0.0533,0.059,0.0617,0.0607,0.0612,0.0696,0.0694,0.0692,0.0738,0,0,0,0,0,0,-0.0302,-0.0267,-0.0247,-0.0078,-0.0028,0.0149,0.0189,0.0224,0.0326,0.0338,0.0454,0.0468,0.0517,0.058,0.0596,0.0626,0.0617,0.0697,0.0695,0.0692,0.0738,0.0738,0.0738,0,0,0,0,0,-0.0316,-0.0272,-0.0248,-0.0215,-0.001,0.0151,0.0186,0.031,0.0328,0.038,0.043,0.0466,0.0574,0.0585,0.0604,0.0636,0.0698,0.0695,0.0693,0.0738,0.0738,0.0738,0,0,0,0,0,0,-0.0385,-0.0247,-0.0218,-0.0129,-0.0001,0.0178,0.0256,0.0314,0.0403,0.0413,0.0473,0.0492,0.0554,0.0566,0.0576,0.0641,0.0633,0.0634,0.0661,0.0661,0.0661,0.0653,0.0622,0,0,0,0,0,-0.0404,-0.0356,-0.0199,-0.013,-0.0059,0.0089,0.017,0.0253,0.0356,0.04,0.0468,0.0513,0.0555,0.0584,0.0634,0.0679,0.0645,0.0695,0.0695,0.0696,0.0693,0.0628,0.0622,0.0681,0.0681,0.0682,0,0,-0.0408,-0.033,-0.0298,-0.0145,-0.0029,0.0086,0.014,0.0281,0.035,0.0396,0.0496,0.0534,0.0565,0.0625,0.0649,0.0641,0.0661,0.0692,0.0693,0.069,0.0624,0.0619,0.0614,0.0679,0.068,0.068,0,0,-0.0378,-0.032,-0.0256,-0.0149,0.0017,0.01,0.0134,0.0312,0.0368,0.0458,0.0493,0.0532,0.0617,0.0645,0.0663,0.0677,0.067,0.0688,0.0688,0.0625,0.0621,0.0616,0.0578,0.057,0.0679,0.068,0.068,0,-0.0381,-0.0284,-0.0207,-0.0098,-0.0007,0.0099,0.0209,0.0284,0.0441,0.0471,0.0486,0.0583,0.0623,0.0662,0.0672,0.0685,0.0646,0.0702,0.0628,0.0622,0.0617,0.0579,0.0569,0.0681,0.0681,0.0681,0.0681,0,-0.0294,-0.02,-0.0136,0.0001,0.0092,0.0218,0.0325,0.039,0.0442,0.0509,0.057,0.0613,0.0661,0.0673,0.0691,0.0678,0.0664,0.0646,0.0638,0.0614,0.0575,0.0564,0.0684,0.0683,0.0683,0.0682,0,0,-0.0305,-0.0116,-0.0089,-0.0012,0.0162,0.0249,0.033,0.044,0.0481,0.0566,0.061,0.0668,0.0685,0.0699,0.0716,0.0664,0.061,0.0641,0.0637,0.0621,0.048,0.0561,0.0556,0.0575,0.0573,0.0571,0.0475,0,-0.0236,-0.0065,0.0007,0.0165,0.0281,0.0362,0.0418,0.0502,0.056,0.0617,0.063,0.0689,0.0693,0.0719,0.067,0.0638,0.058,0.0639,0.049,0.0486,0.0574,0.0546,0.0499,0.0417,0.0464,0.0462,0.046,0,-0.0151,-0.0051,0.0109,0.0246,0.0299,0.0374,0.0465,0.0537,0.0604,0.0641,0.0679,0.0712,0.0704,0.0685,0.0586,0.0622,0.0551,0.05,0.0494,0.0546,0.0546,0.0442,0.0394,0.0441,0.0443,0.0444,0.0446,0,-0.0176,0.002,0.0126,0.0197,0.0361,0.0403,0.0462,0.0546,0.0592,0.0661,0.0694,0.0696,0.0706,0.0605,0.0558,0.0553,0.0425,0.0399,0.0397,0.0402,0.0322,0.0325,0.0284,0.0284,0.0284,0.0285,0.0285,0,-0.0114,-0.0017,0.012,0.0204,0.0285,0.0392,0.0464,0.0522,0.0594,0.0648,0.0703,0.0733,0.0679,0.0637,0.0546,0.0466,0.0411,0.0396,0.0378,0.0341,0.0346,0.0333,0.034,0.0281,0.0282,0.0283,0.0283,0,-0.0115,-0.0019,0.0118,0.0266,0.0298,0.0357,0.0462,0.0509,0.058,0.0646,0.067,0.0739,0.0709,0.0658,0.0524,0.0476,0.0372,0.0347,0.0339,0.0325,0.0386,0.0396,0.0314,0.0316,0.0318,0.0319,0.0321,0,-0.0088,-0.001,0.0142,0.0184,0.0259,0.0343,0.0392,0.0488,0.054,0.0649,0.0672,0.0713,0.076,0.065,0.0544,0.0422,0.0407,0.0328,0.0317,0.0396,0.0386,0.0393,0.0401,0.0213,0.0213,0.0213,0.0213,0,-0.0033,0.0013,0.0098,0.0187,0.0251,0.0327,0.0408,0.0449,0.056,0.0626,0.0721,0.0779,0.0734,0.0644,0.0544,0.0454,0.0357,0.0334,0.0363,0.0255,0.0303,0.0294,0.0302,0.0214,0.0214,0.0214,0.0214,0.0214,-0.0024,0.0029,0.0123,0.0192,0.0254,0.0334,0.0392,0.0475,0.0573,0.0687,0.0729,0.0792,0.0707,0.0579,0.0483,0.0387,0.0381,0.0315,0.0311,0.0307,0.0355,0.0409,0.0348,0.0349,0.0349,0.035,0.035,0,0.0011,0.0062,0.0124,0.0215,0.0266,0.0318,0.0419,0.0472,0.0592,0.0671,0.0763,0.0678,0.0624,0.0538,0.0373,0.0313,0.0274,0.0313,0.0236,0.0234,0.0233,0.0275,0.0247,0.0247,0.0247,0.0247,0,0,0.0034,0.0088,0.0124,0.0215,0.0273,0.0364,0.0432,0.0503,0.0568,0.0648,0.0677,0.0721,0.0617,0.0481,0.0378,0.0303,0.0297,0.0307,0.0386,0.0302,0.0302,0.0221,0.0284,0,0,0,0,0]}],[{"header":{"parameterUnit":"m.s-1","parameterCategory":2,"la1":30.2991,"la2":30.254,"lo1":-89.0895,"lo2":-89.0444,"dy":0.0017,"dx":0.0017,"nx":28,"ny":28,"refTime":"2024-07-01T09:00:00:Z","depth":"4","parameterNumber":2,"parameterNumberName":"U-component_of_CURRENTS"},"data":[0,0,0,0,0,0,0,0,0,0,0,0,0,0,0,0,0,0,0,0,0,0,0,0,0,0,0,0,0,0,0,0,0,0,0,0,0,0,0,0,0,0,0,0,0,0,0,0,0,0,0,0,0,0,0,0,0,0,-0.0422,-0.0422,0,-0.0482,-0.0482,-0.0483,-0.0461,-0.046,-0.0459,-0.0458,-0.0554,-0.0557,-0.0561,0,0,0,0,0,0,0,0,0,0,0,0,0,-0.0372,-0.0372,-0.0421,-0.0423,-0.0424,-0.0482,-0.0482,-0.0483,-0.0461,-0.046,-0.0458,-0.0457,-0.0553,-0.0557,-0.0561,0,0,0,0,0,0,0,0,0,0,0,0,0,-0.0406,-0.0372,-0.0421,-0.0422,-0.0423,-0.0482,-0.0482,-0.0483,-0.0461,-0.046,-0.0458,-0.0456,-0.0551,-0.0557,-0.0562,-0.0627,0,0,-0.0578,-0.0581,0,0,0,0,0,0,0,0,-0.0404,-0.0407,-0.0421,-0.0422,-0.0423,-0.0465,-0.05,-0.0534,-0.0462,-0.0443,-0.0458,-0.0456,-0.0531,-0.0538,-0.0548,-0.0632,-0.0636,-0.0579,-0.0582,-0.0584,-0.0586,0,0,0,0,0,0,0,-0.0401,-0.0405,-0.0442,-0.0422,-0.0424,-0.0448,-0.045,-0.0506,-0.0494,-0.0445,-0.0444,-0.0456,-0.0531,-0.0543,-0.055,-0.0637,-0.0579,-0.0583,-0.0587,-0.0589,-0.0723,-0.0723,0,0,0,0,0,0,-0.0397,-0.0402,-0.044,-0.0444,-0.0413,-0.045,-0.0452,-0.0451,-0.0492,-0.0498,-0.0458,-0.0455,-0.0534,-0.0544,-0.0553,-0.0512,-0.0584,-0.0589,-0.0592,-0.0722,-0.0723,-0.0723,0,0,0,0,0,0,-0.0396,-0.04,-0.0438,-0.0428,-0.0435,-0.0452,-0.0451,-0.0453,-0.0428,-0.0502,-0.0507,-0.0427,-0.0533,-0.0546,-0.0565,-0.0521,-0.0592,-0.0597,-0.0722,-0.0723,-0.0723,-0.0509,0,0,0,0,0,0,-0.0394,-0.0398,-0.0407,-0.0427,-0.0435,-0.045,-0.0453,-0.0455,-0.0442,-0.0438,-0.0479,-0.0488,-0.0533,-0.0556,-0.057,-0.0529,-0.0601,-0.0722,-0.0722,-0.0723,-0.0516,-0.0502,-0.0491,0,0,0,0,0,-0.0392,-0.0404,-0.0407,-0.0412,-0.0442,-0.045,-0.0455,-0.0462,-0.0441,-0.0431,-0.0447,-0.0485,-0.0571,-0.056,-0.0576,-0.0536,-0.0721,-0.0722,-0.0723,-0.0521,-0.0505,-0.0491,0,0,0,0,0,0,-0.0385,-0.0404,-0.0407,-0.0424,-0.0427,-0.0447,-0.0457,-0.0441,-0.0446,-0.0429,-0.0481,-0.0493,-0.0497,-0.0564,-0.0551,-0.0587,-0.0657,-0.0661,-0.0498,-0.0484,-0.0471,-0.0431,-0.0605,0,0,0,0,0,-0.039,-0.0399,-0.0414,-0.0423,-0.0428,-0.0431,-0.0437,-0.0418,-0.0427,-0.0423,-0.0429,-0.047,-0.0524,-0.0535,-0.0589,-0.0604,-0.0678,-0.0599,-0.0586,-0.0575,-0.056,-0.0651,-0.0644,-0.0726,-0.0726,-0.0726,0,0,-0.0392,-0.0404,-0.041,-0.0423,-0.0431,-0.0411,-0.0428,-0.0409,-0.0368,-0.0439,-0.0376,-0.0421,-0.0522,-0.0527,-0.0536,-0.0566,-0.0587,-0.0576,-0.0564,-0.0556,-0.0651,-0.0643,-0.0635,-0.0726,-0.0726,-0.0726,0,0,-0.0391,-0.0405,-0.0409,-0.04,-0.0395,-0.0388,-0.0368,-0.034,-0.031,-0.0266,-0.0317,-0.034,-0.0371,-0.0441,-0.0489,-0.0457,-0.0521,-0.0459,-0.0348,-0.0436,-0.0428,-0.0423,-0.0475,-0.0476,-0.0446,-0.0446,-0.0446,0,-0.0394,-0.0387,-0.041,-0.0395,-0.0371,-0.0363,-0.0321,-0.0306,-0.0266,-0.0239,-0.0217,-0.0273,-0.0343,-0.0404,-0.0365,-0.0425,-0.0457,-0.038,-0.0413,-0.041,-0.0408,-0.0464,-0.0467,-0.0436,-0.0437,-0.0438,-0.0439,0,-0.0384,-0.0367,-0.0363,-0.0332,-0.0309,-0.0271,-0.0239,-0.0182,-0.0119,-0.0099,-0.0082,-0.0158,-0.0186,-0.0218,-0.0261,-0.0287,-0.0306,-0.0382,-0.0431,-0.0385,-0.0449,-0.0456,-0.0421,-0.0425,-0.0428,-0.043,0,0,-0.0397,-0.0364,-0.0357,-0.0316,-0.0254,-0.0227,-0.015,-0.0095,-0.0048,0.0009,0.0048,-0.0004,-0.0001,-0.0059,-0.0132,-0.0192,-0.019,-0.0229,-0.0239,-0.0244,-0.0324,-0.0219,-0.0219,-0.0237,-0.0238,-0.0238,-0.036,0,-0.0371,-0.0335,-0.0305,-0.0217,-0.0181,-0.0117,-0.0052,0.001,0.006,0.0099,0.0042,0.0046,0.0039,0.0046,-0.0004,-0.0174,-0.0203,-0.0147,-0.0402,-0.0409,-0.0292,-0.0223,-0.0241,-0.0366,-0.0368,-0.037,-0.0371,0,-0.0355,-0.0326,-0.0253,-0.0144,-0.0119,-0.0042,0.0077,0.0136,0.0168,0.021,0.0229,0.0194,0.0136,0.0108,-0.0069,-0.0009,-0.0109,-0.0235,-0.0245,-0.0227,-0.0318,-0.044,-0.0386,-0.0385,-0.0384,-0.0383,-0.0382,0,-0.0361,-0.0274,-0.0208,-0.017,-0.0059,0.0029,0.011,0.0186,0.0218,0.0282,0.0288,0.0258,0.0193,0.0096,-0.0103,-0.0051,-0.0352,-0.0349,-0.0353,-0.0349,-0.0503,-0.0509,-0.0458,-0.0458,-0.0458,-0.0457,-0.0457,0,-0.0334,-0.0288,-0.0192,-0.0155,-0.0041,0.006,0.0166,0.0245,0.0297,0.0279,0.0349,0.027,0.0194,0.0018,-0.01,-0.0253,-0.0347,-0.0301,-0.0362,-0.041,-0.0403,-0.0507,-0.0511,-0.0462,-0.0461,-0.046,-0.0459,0,-0.0362,-0.0309,-0.0242,-0.0107,-0.0047,0.004,0.0182,0.0217,0.0311,0.0276,0.0302,0.0255,0.0136,0.0001,-0.0242,-0.0276,-0.0447,-0.0499,-0.0536,-0.0606,-0.0357,-0.0349,-0.0392,-0.0389,-0.0387,-0.0385,-0.0383,0,-0.0369,-0.0341,-0.0239,-0.0195,-0.0119,0.0014,0.0077,0.0215,0.0206,0.0203,0.0123,0.0087,0.0047,-0.0199,-0.0312,-0.0435,-0.0464,-0.0524,-0.0362,-0.0289,-0.0346,-0.0342,-0.0338,-0.0379,-0.0378,-0.0378,-0.0377,0,-0.0396,-0.0383,-0.0353,-0.0268,-0.0179,-0.0106,-0.0017,-0.0004,0.0082,0.0111,0.0043,0.0045,-0.0094,-0.0166,-0.026,-0.0395,-0.0445,-0.0496,-0.0498,-0.0346,-0.0274,-0.0332,-0.0331,-0.0369,-0.037,-0.0371,-0.0371,0,-0.0446,-0.0447,-0.042,-0.0322,-0.0259,-0.02,-0.0138,-0.0106,-0.0053,-0.0015,-0.0101,-0.0124,-0.0152,-0.0162,-0.0332,-0.0331,-0.0252,-0.0244,-0.0257,-0.0267,-0.0162,-0.0048,-0.0098,0,0,0,0,0,-0.0468,-0.0472,-0.0451,-0.0367,-0.0328,-0.0245,-0.0207,-0.0164,-0.0114,-0.0136,-0.0059,-0.0147,-0.014,-0.0208,-0.0164,-0.027,-0.0293,-0.0222,-0.03,-0.0321,-0.0331,-0.0213,0,0,0,0,0,0,-0.0489,-0.0502,-0.0482,-0.0418,-0.0345,-0.0289,-0.023,-0.0206,-0.0201,-0.0153,-0.0166,-0.0112,-0.0147,-0.0136,-0.0152,-0.016,-0.0197,-0.0224,-0.0222,-0.0315,-0.0324,-0.0332,-0.0215,0,0,0,0,0]},{"header":{"parameterUnit":"m.s-1","parameterCategory":2,"la1":30.2991,"la2":30.254,"lo1":-89.0895,"lo2":-89.0444,"dy":0.0017,"dx":0.0017,"nx":28,"ny":28,"refTime":"2024-07-01T09:00:00:Z","depth":"4","parameterNumber":3,"parameterNumberName":"V-component_of_CURRENTS"},"data":[0,0,0,0,0,0,0,0,0,0,0,0,0,0,0,0,0,0,0,0,0,0,0,0,0,0,0,0,0,0,0,0,0,0,0,0,0,0,0,0,0,0,0,0,0,0,0,0,0,0,0,0,0,0,0,0,0,0,0.0468,0.047,0,0.0523,0.0523,0.0523,0.0536,0.0536,0.0537,0.0537,0.0416,0.0412,0.0409,0,0,0,0,0,0,0,0,0,0,0,0,0,0.0393,0.0393,0.0468,0.047,0.0471,0.0523,0.0523,0.0523,0.0536,0.0537,0.0537,0.0537,0.0417,0.0413,0.0408,0,0,0,0,0,0,0,0,0,0,0,0,0,0.0427,0.0393,0.0468,0.0489,0.0492,0.0523,0.0523,0.0523,0.0536,0.0537,0.0537,0.0537,0.0418,0.0413,0.0408,0.0367,0,0,0.0392,0.039,0,0,0,0,0,0,0,0,0.0425,0.0429,0.0485,0.0488,0.0491,0.0529,0.0452,0.0464,0.0536,0.0512,0.0537,0.0538,0.0441,0.0434,0.0436,0.0361,0.0356,0.0391,0.0388,0.0386,0.0384,0,0,0,0,0,0,0,0.0423,0.0427,0.0483,0.0486,0.049,0.0502,0.0506,0.0455,0.0465,0.0514,0.0517,0.0534,0.0441,0.0441,0.0433,0.0354,0.0392,0.0387,0.0384,0.0382,0.024,0.024,0,0,0,0,0,0,0.0429,0.0425,0.0481,0.0485,0.0467,0.0503,0.0508,0.0511,0.0469,0.0467,0.0534,0.0535,0.045,0.0439,0.0429,0.0351,0.0386,0.0381,0.0378,0.0241,0.024,0.024,0,0,0,0,0,0,0.0427,0.0433,0.0479,0.0463,0.047,0.0505,0.0508,0.0512,0.0527,0.0488,0.048,0.0547,0.045,0.0436,0.0377,0.0347,0.0379,0.0374,0.0242,0.0241,0.024,0.0212,0,0,0,0,0,0,0.0424,0.0431,0.0466,0.0462,0.0472,0.0505,0.0508,0.0513,0.054,0.0541,0.0496,0.0485,0.0449,0.0385,0.0372,0.0341,0.037,0.0242,0.0241,0.024,0.0213,0.021,0.0207,0,0,0,0,0,0.0421,0.0451,0.0466,0.0476,0.0507,0.0506,0.051,0.0532,0.054,0.0546,0.0504,0.0487,0.037,0.038,0.0365,0.0331,0.0243,0.0242,0.024,0.0215,0.0211,0.0207,0,0,0,0,0,0,0.043,0.0457,0.0472,0.051,0.0516,0.0511,0.0547,0.054,0.0517,0.0518,0.0469,0.0454,0.0389,0.0372,0.0385,0.0292,0.0307,0.0303,0.0293,0.0289,0.0286,0.0308,0.0365,0,0,0,0,0,0.0452,0.0487,0.0493,0.0526,0.0539,0.0543,0.0559,0.0553,0.0527,0.0522,0.047,0.0424,0.0371,0.0342,0.0291,0.0237,0.0253,0.0212,0.0208,0.0206,0.0215,0.0198,0.0194,0.0235,0.0235,0.0235,0,0,0.0466,0.0489,0.051,0.0533,0.0551,0.0542,0.0552,0.0566,0.0536,0.0505,0.0447,0.0403,0.0354,0.0287,0.0259,0.0269,0.0208,0.0204,0.0202,0.0213,0.0196,0.0192,0.0189,0.0234,0.0234,0.0235,0,0,0.049,0.0531,0.0562,0.0564,0.0589,0.0571,0.0574,0.0551,0.0534,0.0473,0.0437,0.0381,0.0301,0.0252,0.0222,0.0176,0.0188,0.0164,0.0162,0.0144,0.0141,0.0138,0.0181,0.0182,0.0166,0.0166,0.0166,0,0.051,0.0543,0.0568,0.0582,0.0588,0.0578,0.0573,0.0544,0.0487,0.046,0.0453,0.0327,0.0283,0.0203,0.0189,0.0165,0.0186,0.0175,0.014,0.0137,0.0135,0.0179,0.0181,0.0164,0.0164,0.0165,0.0165,0,0.0531,0.0567,0.0584,0.0591,0.0588,0.0589,0.0546,0.0516,0.0483,0.0437,0.0354,0.0287,0.0228,0.0191,0.0174,0.0124,0.0157,0.0134,0.015,0.0129,0.0178,0.018,0.0162,0.0163,0.0163,0.0164,0,0,0.054,0.0593,0.0604,0.0619,0.0594,0.059,0.0536,0.0488,0.0459,0.0378,0.0321,0.0228,0.0209,0.0177,0.0137,0.0109,0.0112,0.0123,0.0122,0.0169,0.0126,0.007,0.0068,0.0083,0.0082,0.0082,0.0177,0,0.0553,0.0604,0.0603,0.061,0.0622,0.0587,0.0544,0.0487,0.0425,0.0353,0.0277,0.0219,0.0198,0.0183,0.0142,0.0093,0.0113,0.0092,0.0137,0.014,0.0094,0.0065,0.008,0.0179,0.018,0.018,0.018,0,0.0561,0.0602,0.0643,0.0644,0.0647,0.0634,0.0583,0.0541,0.0435,0.0393,0.0314,0.0248,0.0177,0.0177,0.0124,0.0114,0.0147,0.0125,0.0128,0.0087,0.0086,0.0198,0.0185,0.0184,0.0184,0.0184,0.0183,0,0.0575,0.0611,0.0662,0.0664,0.0661,0.0666,0.0649,0.0564,0.0528,0.0437,0.0386,0.0288,0.0241,0.0221,0.0186,0.0167,0.0145,0.0113,0.0114,0.0114,0.0152,0.0154,0.0142,0.0142,0.0141,0.0141,0.0141,0,0.0563,0.0607,0.0693,0.0722,0.0747,0.0727,0.0718,0.0678,0.0603,0.0502,0.0438,0.0303,0.0251,0.02,0.0198,0.0154,0.0177,0.0118,0.0116,0.0143,0.0143,0.0156,0.0157,0.0145,0.0144,0.0143,0.0143,0,0.0546,0.0621,0.0688,0.0748,0.0766,0.079,0.0784,0.0745,0.0703,0.0563,0.0542,0.0352,0.0236,0.0231,0.0181,0.0169,0.0147,0.0168,0.025,0.0253,0.0138,0.0136,0.0137,0.0135,0.0134,0.0133,0.0132,0,0.0528,0.0581,0.0722,0.0763,0.08,0.0837,0.0828,0.0806,0.0705,0.0519,0.0391,0.0292,0.0158,0.0087,0.0058,0.0119,0.0126,0.0192,0.0105,0.0129,0.0129,0.0129,0.0129,0.013,0.0129,0.0129,0.0129,0,0.0474,0.0578,0.064,0.0754,0.0797,0.0798,0.0752,0.0686,0.0565,0.0555,0.0273,0.0189,0.0048,-0.003,0.0089,0.0093,0.0154,0.0177,0.0179,0.0097,0.0121,0.0122,0.0123,0.0124,0.0125,0.0125,0.0125,0,0.0442,0.0477,0.0605,0.0686,0.0746,0.0687,0.0689,0.0543,0.0481,0.0272,0.0149,0.0028,-0.0032,-0.0048,-0.0018,0.0052,0.0022,0.0062,0.0069,0.0075,0.0001,0.0019,-0.0013,0,0,0,0,0,0.039,0.0427,0.0498,0.0574,0.0637,0.067,0.0575,0.054,0.041,0.0232,0.021,0.0069,0.0008,-0.0081,-0.0023,-0.0073,0.0039,-0.0008,0.0094,0.0098,0.0104,0.0018,0,0,0,0,0,0,0.0347,0.0419,0.0467,0.0472,0.0508,0.0518,0.0468,0.0387,0.0258,0.0158,0.012,0.0118,0.0063,0.0028,-0.0002,-0.0003,0.0069,-0.0022,-0.0021,0.0095,0.01,0.0104,0.0018,0,0,0,0,0]}]]